Spencer, IA

6:12 PM CDT on April 28, 2017 (GMT -0500)
Spencer Municipal

Weather History for KSPW - March, 2014

Change the Weather History Date:

Wednesday, March 12, 2014

  Actual Average Record
Temperature  
Mean Temperature 30 °F -  
Max Temperature 33 °F 38 °F 70 °F (2015)
Min Temperature 26 °F 21 °F -8 °F (1975)
Degree Days  
Heating Degree Days 36    
Moisture  
Dew Point 22 °F    
Average Humidity 75    
Maximum Humidity 85    
Minimum Humidity 69    
Precipitation  
Precipitation 0.00 in - - ()
Sea Level Pressure  
Sea Level Pressure 30.13 in    
Wind  
Wind Speed 13 mph (North)    
Max Wind Speed 28 mph    
Max Gust Speed 37 mph    
Visibility 10 miles    
Events Snow    
Averages and records for this station are not official NWS values.
T = Trace of Precipitation, MM = Missing Value Source: NWS Daily Summary

Daily Weather History Graph

Daily Weather History Graph

Search for Another Location

Airport or City:

Trip Planner

Search our weather history database for the weather conditions in past years. The results will help you decide how hot, cold, wet, or windy it might be!

Date:

Astronomy

Mar. 12, 2014 Rise Set
Actual Time 7:38 AM CDT 7:23 PM CDT
Civil Twilight 7:09 AM CDT 7:51 PM CDT
Nautical Twilight 6:36 AM CDT 8:24 PM CDT
Astronomical Twilight 6:03 AM CDT 8:58 PM CDT
Moon 3:50 PM CDT (3/12) 5:15 AM CDT (3/12)
Length of Visible Light 12h 42m
Length of Day
11h 45m
Waxing Gibbous, 85% of the Moon is Illuminated
Mar 12
Waxing Gibbous
Mar 16
Full
Mar 23
Last Quarter
Mar 30
New
Apr 7
First Quarter

Hourly Weather History & Observations

Time (CDT) Temp. Windchill Dew Point Humidity Pressure Visibility Wind Dir Wind Speed Gust Speed Precip Events Conditions
12:53 AM 30.0 °F 17.5 °F 23.0 °F 75% 30.10 in 10.0 mi North 19.6 mph - N/A   Clear
1:53 AM 28.9 °F 14.0 °F 21.9 °F 75% 30.11 in 10.0 mi North 27.6 mph 36.8 mph N/A   Clear
2:53 AM 28.0 °F 16.1 °F 21.0 °F 75% 30.12 in 10.0 mi NNW 16.1 mph - N/A   Clear
3:53 AM 27.0 °F 13.5 °F 19.0 °F 72% 30.12 in 10.0 mi North 19.6 mph - N/A   Clear
4:53 AM 26.1 °F 13.6 °F 19.0 °F 75% 30.13 in 10.0 mi North 16.1 mph - N/A   Clear
5:53 AM 26.1 °F 14.5 °F 19.0 °F 75% 30.14 in 10.0 mi North 13.8 mph - N/A   Overcast
6:53 AM 26.1 °F 15.0 °F 19.0 °F 75% 30.16 in 10.0 mi NNW 12.7 mph - N/A   Overcast
7:53 AM 26.1 °F 16.2 °F 18.0 °F 71% 30.15 in 10.0 mi North 10.4 mph - N/A   Overcast
8:53 AM 26.1 °F 15.6 °F 18.0 °F 71% 30.17 in 10.0 mi North 11.5 mph - N/A   Overcast
9:53 AM 27.0 °F 18.0 °F 18.0 °F 69% 30.18 in 10.0 mi North 9.2 mph - N/A   Overcast
10:53 AM 27.0 °F 18.7 °F 18.0 °F 69% 30.19 in 10.0 mi North 8.1 mph - 0.00 in   Overcast
11:53 AM 28.0 °F 20.8 °F 19.0 °F 69% 30.18 in 9.0 mi North 6.9 mph - 0.00 in Snow Light Snow
12:53 PM 28.0 °F 21.7 °F 19.9 °F 72% 30.19 in 10.0 mi NNW 5.8 mph - 0.00 in   Overcast
1:53 PM 28.9 °F - 19.9 °F 69% 30.17 in 10.0 mi Calm Calm - N/A   Overcast
2:53 PM 28.9 °F - 21.0 °F 72% 30.17 in 10.0 mi Calm Calm - N/A   Overcast
3:53 PM 30.0 °F - 21.9 °F 72% 30.16 in 10.0 mi Calm Calm - N/A   Overcast
4:53 PM 30.0 °F 24.1 °F 23.0 °F 75% 30.14 in 10.0 mi SW 5.8 mph - N/A   Overcast
5:53 PM 32.0 °F 25.6 °F 25.0 °F 75% 30.12 in 10.0 mi SW 6.9 mph - N/A   Mostly Cloudy
6:07 PM 32.0 °F 26.4 °F 26.1 °F 79% 30.06 in 10.0 mi SSW 5.8 mph - N/A   Overcast
6:53 PM 33.1 °F 30.0 °F 27.0 °F 78% 30.10 in 10.0 mi SSE 3.5 mph - N/A   Partly Cloudy
7:53 PM 30.9 °F 25.2 °F 26.1 °F 82% 30.10 in 10.0 mi East 5.8 mph - N/A   Mostly Cloudy
8:53 PM 30.9 °F 24.3 °F 27.0 °F 85% 30.11 in 10.0 mi ESE 6.9 mph - N/A   Overcast
9:53 PM 30.0 °F 23.2 °F 26.1 °F 85% 30.10 in 10.0 mi SE 6.9 mph - N/A   Mostly Cloudy
10:53 PM 30.9 °F 22.8 °F 27.0 °F 85% 30.09 in 10.0 mi South 9.2 mph - N/A   Overcast
11:53 PM 30.9 °F 21.7 °F 27.0 °F 85% 30.08 in 10.0 mi South 11.5 mph - N/A   Overcast